Wetterdaten am Flugplatz MSG Übersee

alte Datensätze gelöscht
52 aktuelle Wetterdateneinträge gefunden

Datum/Uhrzeit   Windrichtung/Grad    Geschw./kmh    Temp./C°    Luftdruck/mbar    Spannung/Volt   
2026-05-10 00:08 O/98 6 14 1018 12,43
2026-05-10 00:18 O/90 6 14 1018 12,48
2026-05-10 00:28 O/87 9 14 1017 12,33
2026-05-10 00:38 O/86 9 14 1017 12,38
2026-05-10 00:48 O/81 9 13 1017 12,40
2026-05-10 00:58 O/78 3 13 1017 12,36
2026-05-10 01:08 SO/119 4 13 1017 12,42
2026-05-10 01:18 O/107 5 13 1017 12,43
2026-05-10 01:28 O/78 7 13 1017 12,32
2026-05-10 01:38 O/70 6 12 1017 12,39
2026-05-10 01:48 N/4 5 12 1017 12,40
2026-05-10 01:58 NW/321 2 12 1017 12,32
2026-05-10 02:09 W/257 2 12 1017 12,36
2026-05-10 02:19 O/86 6 12 1017 12,32
2026-05-10 02:29 O/73 6 11 1017 12,35
2026-05-10 02:39 N/349 4 11 1017 12,32
2026-05-10 02:49 N/338 4 11 1016 12,35
2026-05-10 02:59 NW/335 3 11 1016 12,32
2026-05-10 03:09 NW/335 2 11 1016 12,32
2026-05-10 03:19 NO/62 2 10 1016 12,35
2026-05-10 03:29 SO/121 3 10 1016 12,36
2026-05-10 03:39 SO/135 5 10 1016 12,38
2026-05-10 03:49 SO/127 3 10 1016 12,36
2026-05-10 03:59 SO/125 2 10 1016 12,36
2026-05-10 04:09 SO/126 1 9 1016 12,35
2026-05-10 04:19 SO/126 1 9 1016 12,33
2026-05-10 04:29 SO/126 3 9 1016 12,33
2026-05-10 04:39 SO/126 2 9 1016 12,33
2026-05-10 04:49 SO/126 1 9 1016 12,32
2026-05-10 05:00 SO/126 1 8 1016 12,04
2026-05-10 05:10 SO/126 1 8 1016 12,32
2026-05-10 05:20 SO/126 1 8 1016 12,32
2026-05-10 05:30 SO/126 1 8 1016 12,32
2026-05-10 05:40 SO/126 0 8 1016 12,32
2026-05-10 05:50 SO/126 0 8 1016 12,32
2026-05-10 06:00 SO/126 1 7 1016 12,30
2026-05-10 06:10 SO/126 2 7 1016 12,30
2026-05-10 06:20 SO/126 4 7 1016 12,30
2026-05-10 06:30 SO/126 3 7 1016 12,30
2026-05-10 06:40 SO/126 2 8 1016 12,29
2026-05-10 06:50 O/101 5 8 1016 12,30
2026-05-10 07:00 O/80 3 9 1016 11,98
2026-05-10 07:10 O/76 2 9 1015 12,30
2026-05-10 07:20 O/91 6 10 1015 12,35
2026-05-10 07:31 SO/131 3 11 1016 12,38
2026-05-10 07:41 SO/139 3 12 1016 12,33
2026-05-10 07:51 SO/141 2 13 1016 12,36
2026-05-10 08:01 SO/141 2 14 1016 12,43
2026-05-10 08:11 NO/25 5 15 1015 12,57
2026-05-10 08:21 NO/28 7 16 1015 12,65
2026-05-10 08:31 NO/26 11 17 1015 12,61
2026-05-10 08:41 N/18 12 18 1015 12,65